User: anonymous   Login
Location: Unspecified
(0.0000°N, 0.0000°E)
Time: 21:45:01
(UTC+00:00)
Language:

E-STAR-II - Orbit

View from above orbital plane
View from above orbital plane
View from above satellite
View from above satellite

Ground track
Ground track

The orbit data is extracted from the following two-line orbital elements,

1 41459U 16025D   18048.70698376 +.00001638 +00000-0 +90097-4 0  9991
2 41459 098.1497 104.9919 0171868 188.4801 171.3512 15.04005166099463
Epoch (UTC): 17 February 2018 16:58:03
Eccentricity: 0.0171868
inclination: 98.1497°
perigee height: 435 km
apogee height: 674 km
right ascension of ascending node: 104.9919°
argument of perigee: 188.4801°
revolutions per day: 15.04005166
mean anomaly at epoch: 171.3512°
orbit number at epoch: 9946

The dashed part of the orbit path shows where the satellite is in the earth's shadow,  

DLR